Temperature
6 6 7 7 8 9 9 9 9 10 10 10 10 10 10 10 10 10 10 10 10 10 10 10 10 10 9 9 9 9 9 9 9 8 8 8 8 8 8 8 8 8 8
5 5 6 6 7 8 8 9 9 9 9 9 9 9 9 9 9 9 9 9 9 9 9 9 9 9 9 9 9 9 8 8 8 8 7 7 7 8 8 8 8 8 8
4 4 5 6 6 7 7 8 8 8 8 9 8 9 9 9 9 9 9 9 9 9 9 9 9 9 9 9 9 8 8 8 8 8 7 7 8 7 7 7 7 7 7
4 4 4 5 5 6 7 7 7 8 8 8 8 8 8 8 8 8 9 9 9 9 9 9 9 8 8 8 8 8 8 8 7 7 7 7 7 7 7 7 7 7 7
3 3 3 4 5 6 6 6 6 7 7 7 7 7 7 7 8 8 8 8 8 8 8 8 8 8 8 8 8 8 7 7 7 7 7 7 7 7 7 6 7 7 7
2 2 3 3 4 5 5 6 6 6 6 7 7 7 7 7 7 7 8 8 8 8 8 8 8 8 8 7 7 7 7 7 7 7 7 7 7 7 7 7 6 6 6
1 2 2 2 3 4 4 5 5 5 6 6 6 6 6 6 7 7 7 7 7 7 7 7 7 7 7 7 7 7 7 7 7 7 6 6 6 6 6 6 6 6 6
1 1 1 2 2 3 3 4 4 4 5 5 5 5 6 6 6 6 6 6 7 7 7 7 7 7 7 7 6 6 6 6 6 6 6 6 6 6 6 6 6 6 6
0 0 0 1 2 2 3 3 3 4 4 4 4 5 5 5 5 6 6 6 6 6 6 6 6 6 6 6 6 6 6 6 6 6 6 6 6 6 6 6 6 6 5
-0 -0 -0 0 0 1 2 2 3 3 3 4 4 4 4 4 5 5 5 5 5 5 5 5 5 5 6 6 5 6 6 5 6 6 5 5 5 5 5 5 5 5 5
-1 -1 -1 -1 -0 0 1 1 2 2 2 3 3 3 4 4 4 4 4 5 5 5 5 5 5 5 5 5 5 5 5 5 5 5 5 5 5 5 5 5 5 5 5
-2 -1 -1 -1 -1 -0 0 0 1 1 1 2 2 3 3 3 3 3 3 4 4 4 4 4 4 4 4 4 4 5 5 5 5 5 5 5 5 5 5 5 4 4 4
-2 -2 -2 -1 -1 -1 -0 -0 0 0 1 1 1 2 2 2 2 2 3 3 3 3 3 3 3 3 3 4 4 4 4 4 4 4 4 4 4 4 4 4 4 4 4
-3 -3 -2 -2 -2 -1 -1 -1 -0 -0 0 1 1 1 1 1 2 2 2 2 2 2 2 2 3 3 3 3 3 3 3 4 4 4 4 4 4 4 4 4 4 4 3
-3 -3 -3 -3 -2 -2 -1 -1 -1 -1 -0 0 0 0 0 1 1 1 1 1 2 2 2 2 2 2 2 2 3 3 3 3 3 3 3 3 3 3 3 3 3 3 3
-4 -4 -4 -3 -3 -3 -2 -2 -2 -1 -1 -1 -0 -0 -0 0 0 0 1 1 1 1 1 1 1 1 2 2 2 2 2 2 2 3 3 3 3 3 3 3 3 3 3
-5 -4 -4 -4 -4 -3 -3 -2 -2 -2 -2 -1 -1 -1 -1 -0 -0 -0 0 0 0 1 1 1 1 1 1 1 1 2 1 2 2 2 2 2 2 2 2 2 2 2 2
-5 -5 -5 -5 -4 -4 -3 -3 -3 -3 -2 -2 -2 -2 -1 -1 -1 -1 -1 -1 -0 -0 -0 0 0 0 1 1 1 1 1 1 1 2 2 2 2 2 2 2 2 2 2
-5 -5 -5 -5 -5 -4 -4 -4 -3 -3 -3 -3 -2 -2 -2 -2 -2 -1 -1 -1 -1 -1 -1 -0 -0 -0 -0 0 0 0 0 1 1 1 1 1 1 1 1 1 1 1 1
-6 -6 -6 -5 -5 -5 -4 -4 -4 -4 -4 -3 -3 -3 -3 -3 -2 -2 -2 -1 -1 -1 -1 -1 -1 -1 -0 -0 -0 -0 -0 -0 0 0 0 0 1 1 1 1 1 1 1
-6 -6 -6 -5 -5 -5 -5 -5 -5 -5 -4 -4 -4 -4 -3 -3 -3 -3 -2 -2 -2 -2 -2 -1 -1 -1 -1 -1 -1 -1 -1 -1 -1 -0 -0 -0 -0 0 0 0 0 1 0
-6 -6 -6 -6 -6 -6 -5 -5 -5 -5 -5 -5 -4 -4 -4 -4 -3 -3 -3 -3 -3 -2 -2 -2 -2 -2 -2 -1 -1 -1 -1 -1 -1 -1 -1 -1 -0 -0 -0 -0 0 0 0
-7 -6 -6 -6 -6 -6 -6 -6 -5 -5 -5 -5 -5 -5 -4 -4 -4 -4 -4 -3 -3 -3 -3 -3 -3 -3 -2 -2 -2 -2 -2 -1 -1 -1 -1 -1 -1 -1 -1 -1 -1 -1 -1
-7 -7 -7 -7 -6 -6 -6 -6 -6 -6 -5 -5 -5 -5 -5 -5 -4 -4 -4 -4 -4 -4 -3 -4 -3 -3 -3 -3 -3 -2 -2 -2 -2 -2 -2 -2 -1 -1 -1 -1 -1 -1 -1
-8 -7 -7 -7 -7 -6 -6 -6 -6 -6 -6 -6 -6 -6 -5 -5 -5 -5 -5 -4 -4 -4 -4 -4 -4 -4 -4 -3 -3 -3 -3 -2 -2 -2 -2 -2 -2 -2 -2 -2 -2 -2 -2
-8 -8 -8 -7 -7 -7 -7 -7 -7 -6 -6 -6 -6 -6 -6 -6 -6 -5 -5 -5 -5 -4 -5 -5 -5 -4 -4 -4 -4 -3 -3 -3 -3 -3 -3 -3 -3 -3 -2 -2 -2 -3 -2
Wind_Speed
1 1 1 1 2 2 2 3 4 3 3 3 3 3 3 3 3 3 4 5 5 6 6 5 6 6 6 6 7 6 6 4 5 4 3 2 1 1 1 2 2 2 2
1 1 1 2 1 1 2 2 3 3 3 2 3 2 2 2 2 2 3 4 5 5 6 6 5 6 6 7 8 7 5 4 5 4 3 3 3 2 1 2 2 2 2
1 0 1 1 1 1 1 1 2 3 3 3 3 3 3 2 2 2 2 3 4 5 5 6 6 6 6 7 8 8 8 6 5 4 4 3 4 2 3 3 3 3 3
1 0 1 1 1 0 0 0 1 2 2 2 3 5 4 4 3 3 3 3 4 4 5 5 6 6 6 6 8 8 7 7 6 4 3 2 1 3 3 3 4 3 4
0 1 1 1 1 1 1 1 1 1 1 2 3 4 4 3 3 3 4 3 3 4 5 5 5 6 6 6 6 8 8 7 7 5 4 3 2 3 3 3 4 4 4
1 2 2 2 3 3 2 2 2 1 0 1 2 3 4 4 4 4 4 4 3 3 4 5 5 5 5 6 6 6 8 7 7 6 5 5 4 4 4 3 4 4 3
3 3 3 3 3 4 3 2 2 1 1 1 0 1 3 4 5 5 4 4 3 3 4 4 5 5 5 6 6 6 6 7 8 7 6 6 5 4 4 4 3 3 2
4 4 3 3 3 3 3 3 2 1 1 1 1 1 1 2 3 4 4 4 3 4 4 5 5 5 6 6 6 5 6 5 7 8 7 5 5 4 4 4 4 3 3
4 4 4 4 4 3 3 3 2 2 1 1 1 1 1 2 2 3 3 3 3 3 4 5 5 5 6 6 6 5 6 6 6 7 8 6 5 4 4 4 5 5 5
5 5 4 5 4 4 4 3 3 2 2 2 1 1 1 2 2 2 3 3 3 3 4 4 5 5 5 6 6 6 6 7 6 5 7 7 6 5 5 4 4 5 6
6 5 5 5 5 4 4 4 4 3 3 3 2 2 2 2 2 2 3 3 3 4 4 5 5 5 5 6 6 7 7 7 7 7 7 8 8 6 6 5 5 5 4
6 6 5 5 5 5 5 4 4 4 4 3 3 2 2 2 2 3 3 3 3 4 4 4 5 5 5 6 7 7 7 8 8 8 8 8 7 8 6 6 6 6 5
6 6 6 6 5 5 5 4 4 4 4 3 3 3 2 3 3 3 3 3 4 4 4 4 5 5 6 6 7 7 7 8 8 8 8 8 8 8 7 7 7 6 5
7 6 6 6 6 6 6 5 5 4 4 4 3 3 3 3 3 3 3 3 4 4 4 4 5 5 6 6 6 7 7 7 7 7 7 8 8 9 8 7 7 6 6
8 7 7 7 7 6 6 6 5 5 4 4 3 4 4 4 4 3 3 3 4 4 4 4 5 5 5 5 6 6 7 7 7 7 7 7 7 8 7 6 7 7 6
8 8 8 7 7 7 6 6 6 5 4 4 4 4 4 4 4 3 3 3 4 4 4 5 5 5 5 6 7 6 6 7 7 7 7 7 7 8 9 9 9 9 8
8 9 8 7 7 6 6 6 6 5 4 4 4 4 4 4 4 4 3 3 4 4 4 5 5 6 6 7 7 7 6 7 7 7 6 6 6 7 7 8 8 8 8
9 9 8 8 7 6 6 6 5 5 4 4 4 5 5 4 4 4 4 4 3 3 4 4 5 5 5 6 7 7 7 6 7 6 7 7 7 7 7 6 6 7 7
8 8 7 7 6 6 5 5 5 5 5 5 5 5 5 5 4 4 4 4 3 3 3 3 4 5 5 5 6 6 5 5 6 5 6 6 7 7 8 7 7 6 5
8 7 7 6 6 5 5 4 5 5 5 6 6 6 5 5 4 4 4 4 3 3 3 3 3 4 4 4 5 6 4 5 5 4 5 6 6 7 8 8 7 7 6
8 7 6 6 5 5 4 4 5 6 6 6 6 6 5 5 4 4 4 3 3 2 2 3 3 3 4 4 4 5 4 5 4 4 4 4 6 7 7 8 7 7 6
8 7 6 6 6 5 5 5 6 7 7 6 6 6 5 5 4 3 3 3 2 2 2 2 2 2 3 3 4 5 5 5 4 4 4 4 5 6 6 6 6 6 5
8 7 6 6 6 6 5 5 6 7 7 6 6 6 5 4 4 3 3 3 2 2 2 2 2 2 2 2 3 4 5 5 4 3 4 4 5 5 5 5 5 5 4
7 7 6 6 6 6 6 6 6 6 6 6 6 5 5 5 4 3 3 2 2 2 2 2 2 2 2 2 2 2 3 3 3 2 3 3 3 3 3 3 3 3 3
7 6 6 6 7 7 6 6 6 5 5 5 5 5 5 4 4 4 4 4 3 3 3 2 2 2 3 3 4 3 2 3 3 2 2 2 2 2 2 2 2 2 3
6 6 6 6 7 7 6 6 6 5 5 5 5 4 4 4 4 4 4 6 4 5 5 4 3 3 3 3 3 2 2 2 3 2 2 2 2 3 3 3 3 3 3
Wind_Direction
210 105 91 113 114 113 138 157 154 152 151 153 157 161 166 161 156 159 163 167 172 176 176 172 174 177 182 180 173 160 160 158 154 147 140 132 139 155 161 174 172 150 140
299 59 64 80 104 125 122 157 165 170 173 172 170 172 169 165 161 157 166 175 176 181 187 184 181 182 184 185 178 171 169 166 179 176 171 180 189 189 196 196 196 190 176
224 49 44 71 90 125 149 184 187 180 176 164 156 142 136 136 158 169 173 182 185 187 191 193 188 186 188 193 188 185 183 178 186 202 201 198 202 177 187 202 206 206 202
240 112 40 52 75 192 188 157 193 173 170 165 171 176 185 190 196 190 187 184 189 192 195 196 195 192 191 195 195 194 195 187 187 195 222 254 187 187 177 193 207 210 218
338 53 33 37 48 52 52 48 71 146 165 179 180 190 200 202 190 183 187 191 189 194 197 198 199 198 195 196 200 195 199 201 200 193 191 202 216 223 208 202 202 209 216
39 47 36 43 43 44 45 49 59 57 129 174 184 199 201 197 193 192 191 195 194 196 202 201 203 204 202 200 202 203 204 207 206 202 199 199 204 208 217 222 213 216 210
35 43 36 31 30 34 30 38 46 35 35 65 204 219 212 207 205 203 203 201 201 205 205 208 209 208 208 205 202 205 208 209 208 209 209 213 221 217 220 221 217 223 220
31 28 22 21 23 26 24 32 23 9 16 21 315 267 240 221 219 215 211 212 213 214 210 211 216 213 209 206 203 206 209 209 208 212 212 213 219 216 218 218 210 216 225
14 17 18 17 13 11 14 18 7 0 1 350 337 300 265 240 228 225 223 221 222 220 213 212 213 215 212 209 203 206 209 209 211 211 212 213 215 216 221 222 223 225 230
7 9 10 9 6 2 3 9 2 357 357 357 343 318 303 266 244 233 230 227 223 220 217 216 215 216 214 211 208 208 210 211 214 211 212 215 215 211 213 217 229 241 243
2 2 3 2 3 5 5 5 3 1 359 356 343 334 324 297 257 241 237 235 232 225 221 221 219 219 218 216 214 212 209 212 215 214 215 217 214 210 209 211 217 227 235
358 1 3 3 4 3 3 1 357 353 347 343 338 334 324 308 271 252 247 241 237 234 229 225 222 222 223 220 220 219 215 215 217 217 217 218 214 215 213 209 214 220 224
1 4 3 0 359 357 355 351 349 345 339 337 335 329 317 304 284 269 258 247 240 236 232 228 228 226 225 224 223 223 223 221 221 221 219 219 215 215 213 213 215 217 219
358 359 357 355 354 351 347 344 342 340 337 336 333 325 310 301 290 277 260 249 243 238 235 235 237 234 230 227 224 225 225 226 225 223 223 222 220 221 215 215 216 213 213
352 351 350 349 346 345 343 340 336 335 333 332 328 322 313 304 293 281 269 255 247 244 239 237 237 235 234 229 224 223 226 226 227 225 224 224 224 226 222 218 214 209 211
343 342 342 340 338 336 334 333 333 330 326 323 320 318 311 308 299 289 279 265 254 247 240 236 235 236 237 230 228 230 229 228 228 227 225 224 222 223 221 223 222 217 214
335 333 332 329 328 328 327 326 324 322 319 316 314 313 309 307 300 295 287 276 266 255 245 239 236 238 237 227 227 227 232 231 230 228 224 223 224 220 222 219 220 224 225
328 326 326 326 324 325 325 322 321 324 323 318 314 313 312 306 303 297 291 285 277 262 253 247 241 241 238 228 225 224 230 233 234 232 228 224 222 221 217 216 219 226 228
323 321 322 321 322 325 327 325 326 330 329 323 317 312 309 303 300 299 296 288 277 272 266 259 249 245 243 230 225 224 230 230 235 237 234 228 227 220 211 214 217 223 231
327 327 328 328 329 330 330 329 330 333 328 321 316 313 305 298 295 295 295 292 280 274 275 272 261 249 247 238 232 225 226 226 231 234 232 229 231 223 214 217 216 221 226
327 330 331 335 334 333 336 333 331 327 323 320 317 315 311 305 299 300 297 293 282 274 272 273 269 258 253 244 239 230 227 225 227 232 233 230 219 223 223 226 226 225 223
329 333 335 336 337 338 338 333 328 325 324 323 322 321 320 317 311 312 308 299 282 265 260 259 267 266 260 250 241 233 234 239 231 235 237 231 219 227 227 228 222 217 215
328 330 333 332 336 338 335 328 326 327 328 328 327 326 327 326 321 313 306 306 288 260 254 251 259 272 270 258 249 236 233 240 241 237 233 236 226 231 230 223 215 209 213
327 330 331 331 331 333 332 327 325 328 330 328 328 330 332 332 333 329 318 309 298 274 258 255 257 267 276 269 259 244 235 230 232 226 213 217 218 220 221 214 209 215 216
326 328 327 322 323 326 329 332 331 330 329 331 331 331 333 331 332 334 331 320 309 292 277 267 260 256 259 266 277 262 244 229 218 210 209 222 213 212 210 208 210 212 211
323 326 327 327 326 328 330 334 335 334 335 335 334 332 330 328 329 334 339 349 340 338 325 302 286 279 272 273 282 275 249 213 191 191 198 210 217 222 221 214 212 215 216
Height
1498 1498 1499 1500 1502 1504 1506 1508 1510 1512 1514 1516 1518 1520 1522 1525 1527 1529 1531 1532 1534 1536 1538 1539 1540 1542 1543 1545 1547 1549 1551 1552 1554 1556 1558 1559 1560 1560 1561 1562 1563 1563 1564
1496 1496 1497 1498 1500 1502 1504 1506 1508 1510 1512 1514 1516 1518 1520 1522 1524 1526 1528 1530 1532 1533 1535 1537 1538 1539 1541 1542 1544 1546 1548 1550 1552 1554 1556 1557 1559 1558 1559 1559 1560 1561 1562
1494 1495 1495 1496 1498 1499 1501 1503 1505 1508 1510 1512 1514 1516 1518 1519 1522 1523 1525 1527 1529 1531 1532 1534 1535 1537 1538 1540 1541 1543 1545 1547 1549 1551 1554 1555 1555 1556 1556 1557 1558 1558 1559
1494 1494 1494 1495 1496 1498 1499 1501 1503 1505 1507 1509 1511 1513 1514 1516 1518 1520 1522 1524 1526 1528 1529 1531 1533 1534 1535 1537 1538 1540 1542 1544 1545 1548 1549 1551 1552 1553 1554 1555 1555 1556 1556
1493 1493 1494 1494 1495 1496 1498 1499 1501 1503 1505 1506 1508 1510 1512 1514 1516 1517 1519 1521 1523 1524 1526 1528 1529 1531 1532 1534 1535 1537 1539 1541 1542 1544 1546 1548 1549 1550 1551 1552 1552 1553 1554
1493 1493 1493 1494 1494 1495 1496 1497 1499 1500 1502 1504 1505 1507 1509 1510 1512 1514 1516 1517 1519 1521 1523 1524 1526 1527 1529 1530 1532 1533 1535 1537 1539 1541 1542 1544 1546 1547 1548 1549 1549 1550 1551
1492 1492 1492 1492 1493 1493 1494 1495 1497 1498 1499 1501 1502 1504 1506 1507 1509 1510 1512 1514 1515 1517 1519 1520 1522 1524 1525 1527 1528 1530 1532 1533 1535 1537 1538 1540 1542 1544 1545 1546 1546 1547 1547
1493 1492 1492 1492 1492 1493 1493 1494 1495 1496 1497 1498 1499 1501 1502 1504 1505 1507 1509 1510 1511 1513 1515 1517 1518 1520 1521 1523 1525 1526 1527 1529 1531 1532 1534 1536 1537 1539 1541 1542 1544 1544 1544
1493 1492 1492 1492 1492 1492 1492 1493 1494 1494 1495 1495 1496 1498 1499 1501 1502 1504 1505 1506 1508 1509 1511 1513 1514 1516 1517 1519 1521 1522 1524 1525 1527 1528 1530 1531 1533 1534 1536 1538 1540 1542 1541
1493 1493 1492 1492 1492 1492 1492 1492 1493 1493 1493 1493 1494 1495 1496 1498 1499 1500 1501 1503 1504 1506 1507 1509 1510 1511 1513 1515 1517 1518 1520 1521 1522 1524 1525 1527 1528 1530 1531 1533 1535 1536 1537
1494 1493 1493 1492 1492 1491 1491 1491 1491 1491 1491 1492 1492 1493 1494 1495 1496 1497 1498 1499 1501 1502 1503 1505 1506 1507 1509 1510 1512 1513 1515 1517 1518 1519 1521 1522 1524 1525 1526 1528 1529 1531 1532
1495 1494 1493 1492 1491 1491 1490 1490 1490 1490 1490 1490 1490 1491 1491 1492 1493 1494 1495 1496 1497 1498 1500 1501 1502 1503 1505 1506 1507 1509 1510 1512 1513 1515 1516 1517 1519 1520 1522 1523 1524 1526 1527
1495 1494 1493 1492 1491 1490 1490 1489 1489 1489 1489 1489 1489 1489 1489 1490 1491 1491 1492 1492 1494 1495 1496 1497 1498 1499 1500 1502 1503 1504 1505 1507 1508 1509 1511 1512 1514 1515 1516 1518 1519 1520 1522
1495 1493 1492 1491 1490 1489 1488 1488 1487 1487 1487 1487 1486 1486 1487 1487 1488 1488 1489 1489 1490 1491 1492 1493 1494 1495 1496 1497 1498 1499 1500 1502 1503 1504 1506 1507 1509 1510 1511 1513 1514 1515 1516
1494 1493 1491 1490 1489 1488 1487 1486 1486 1485 1485 1484 1484 1484 1484 1484 1485 1485 1485 1486 1486 1487 1488 1489 1490 1490 1491 1492 1493 1494 1495 1497 1498 1499 1501 1502 1503 1505 1506 1508 1509 1510 1511
1495 1493 1491 1489 1488 1486 1486 1485 1484 1483 1483 1482 1482 1481 1481 1481 1481 1482 1482 1482 1482 1483 1484 1485 1485 1486 1486 1487 1488 1490 1491 1492 1493 1494 1495 1497 1498 1500 1501 1502 1504 1505 1506
1495 1492 1490 1488 1487 1485 1484 1483 1482 1481 1481 1480 1479 1479 1478 1478 1478 1478 1478 1478 1478 1479 1479 1480 1481 1481 1482 1483 1484 1485 1486 1487 1488 1489 1490 1491 1493 1494 1496 1496 1498 1499 1500
1494 1492 1489 1487 1485 1483 1482 1481 1480 1479 1478 1477 1476 1476 1475 1475 1475 1475 1475 1475 1475 1475 1475 1476 1476 1477 1477 1478 1479 1480 1481 1482 1483 1484 1485 1486 1487 1489 1490 1491 1492 1493 1494
1493 1491 1488 1485 1483 1481 1480 1479 1478 1476 1475 1475 1474 1473 1472 1472 1472 1471 1471 1471 1471 1471 1471 1471 1471 1472 1473 1474 1475 1476 1476 1477 1478 1479 1480 1481 1482 1484 1485 1486 1487 1488 1489
1492 1489 1486 1483 1481 1479 1478 1477 1476 1474 1473 1472 1471 1470 1470 1469 1468 1467 1467 1467 1467 1467 1466 1467 1467 1468 1468 1469 1470 1471 1472 1472 1473 1474 1475 1476 1477 1479 1480 1481 1482 1482 1483
1490 1487 1484 1481 1479 1478 1477 1475 1474 1472 1471 1470 1468 1467 1467 1466 1465 1464 1464 1463 1463 1463 1462 1462 1463 1463 1464 1465 1466 1467 1468 1468 1469 1469 1470 1471 1472 1474 1475 1476 1477 1478 1479
1488 1485 1483 1480 1478 1477 1475 1473 1472 1471 1469 1468 1466 1465 1464 1463 1462 1461 1460 1459 1459 1459 1458 1458 1458 1459 1460 1460 1461 1462 1464 1465 1465 1465 1466 1466 1468 1469 1470 1471 1472 1473 1474
1486 1484 1481 1479 1477 1476 1474 1472 1470 1469 1467 1466 1464 1462 1461 1460 1459 1458 1457 1456 1455 1455 1455 1455 1455 1455 1456 1456 1457 1458 1459 1460 1461 1461 1462 1463 1463 1464 1465 1466 1467 1468 1469
1485 1482 1480 1478 1476 1474 1473 1471 1469 1467 1465 1464 1462 1460 1459 1457 1456 1455 1454 1453 1452 1452 1452 1452 1452 1452 1452 1453 1453 1454 1455 1456 1457 1457 1458 1459 1459 1460 1461 1461 1462 1463 1464
1483 1481 1479 1476 1474 1473 1471 1469 1467 1466 1464 1462 1460 1458 1457 1456 1454 1453 1452 1451 1451 1450 1450 1449 1449 1449 1449 1449 1450 1450 1451 1452 1453 1453 1454 1454 1455 1455 1456 1457 1457 1458 1459
1481 1479 1477 1475 1473 1471 1469 1467 1466 1464 1462 1460 1458 1457 1455 1454 1453 1451 1450 1449 1449 1448 1448 1447 1447 1446 1446 1446 1447 1447 1448 1449 1450 1450 1450 1450 1451 1451 1452 1452 1453 1454 1455